#timestamp,LO_Frequency,Hit,StdDev 
1510898415.7,286046971.6,Y
1510898435.6,286046992.6,P
1510898455.4,286046989.8,N
1510898475.2,286046989.3,N
1510898495.1,286046984.7,Y
1510898496.0,286046984.7,P
1510898515.8,286046991.8,P
1510898535.6,286046989.5,P
1510898555.5,286046988.8,Y
1510898575.3,286047003.8,P
1510898595.1,286046999.3,N
1510898615.9,286046997.9,N
1510898635.7,286046992.2,N
1510898655.5,286046992.6,N
1510898675.4,286046988.6,N
1510898695.2,286046992.4,N
1510898715.0,286046989.0,N
1510898715.9,286046989.0,N
1510898735.7,286046994.5,N
1510898755.6,286046991.8,N
1510898775.4,286046994.2,N
1510898795.2,286046990.2,N
1510898815.1,286046990.8,N
1510898816.0,286046990.8,N
1510898835.8,286046990.6,N
1510898855.6,286046990.2,N
1510898875.5,286046989.1,N
1510898895.3,286046987.6,Y
1510898915.1,286046994.8,P
1510898935.9,286046990.4,P
1510898955.7,286046987.2,P
1510898975.5,286046984.2,Y
1510898995.4,286046990.3,P
1510899015.2,286046991.2,P
1510899035.0,286046994.5,P
1510899035.9,286046994.5,Y
1510899055.8,286047010.4,P
1510899075.6,286047010.7,N
1510899095.4,286047015.5,N
1510899115.3,286047019.2,N
1510899135.1,286047019.1,N
1510899155.8,286047019.7,N
1510899175.7,286047018.5,N
1510899195.5,286047019.0,N
1510899215.3,286047016.0,N
1510899235.2,286047017.3,N
1510899255.9,286047014.9,N
1510899275.7,286047015.4,N
1510899295.5,286047012.8,N
1510899315.4,286047015.2,N
1510899335.2,286047013.3,N
1510899355.0,286047013.5,N
1510899355.9,286047013.5,N
1510899375.8,286047012.4,N
1510899395.6,286047009.2,N
1510899415.4,286047006.7,N
1510899435.3,286047010.3,N
1510899455.1,286047008.1,N
1510899456.0,286047008.1,N
1510899475.8,286047015.6,N
1510899495.7,286047020.2,Y
1510899515.5,286047008.9,P
1510899535.3,286047015.2,P
1510899555.2,286047018.6,P
1510899575.9,286047018.2,Y
1510899595.7,286047008.4,P
1510899615.6,286047009.3,P
1510899635.4,286047012.8,P
1510899655.2,286047012.5,Y
1510899675.1,286047005.7,P
1510899676.0,286047005.7,N
1510899695.8,286047008.8,P
1510899715.6,286047009.8,Y
1510899735.5,286047001.3,P
1510899755.3,286047001.9,N
1510899775.1,286047005.8,N
1510899795.9,286047006.6,N
1510899815.7,286047007.0,N
1510899835.5,286047005.6,N
1510899855.4,286047009.3,Y
1510899875.2,286047001.6,P
1510899895.0,286046999.8,N
1510899895.9,286046999.8,N
1510899915.8,286047001.8,N
1510899935.6,286047003.8,N
1510899955.4,286047002.7,N
1510899975.3,286047002.3,N
1510899995.1,286047004.3,N
1510899996.0,286047004.3,N
1510900015.8,286047004.9,N
1510900035.7,286047005.1,N
1510900055.5,286047007.3,Y
1510900075.3,286047004.4,P
1510900095.2,286047005.3,P
1510900115.9,286047005.0,P
1510900135.7,286047010.5,Y
1510900155.6,286047007.0,P
1510900175.4,286047008.6,P
1510900195.2,286047008.8,P
1510900215.1,286047006.2,Y
1510900216.0,286047006.2,P
1510900235.8,286047000.2,N
1510900255.6,286046997.1,N
1510900275.5,286046999.3,N
1510900295.3,286046995.0,N
1510900315.1,286046993.6,N
1510900335.8,286046994.6,N
1510900355.7,286046990.2,N
1510900375.5,286046991.9,N
1510900395.3,286046994.7,N
1510900415.2,286046994.1,N
1510900435.0,286046996.4,N
1510900435.9,286046996.4,N
1510900455.7,286046997.7,N
1510900475.6,286047001.3,N
1510900495.4,286047003.7,N
1510900515.2,286047008.4,N
1510900535.1,286047007.7,N
1510900536.0,286047007.7,N
1510900555.8,286047008.8,N
1510900575.6,286047005.4,N
1510900595.5,286047001.9,N
1510900615.3,286046998.8,N
1510900635.1,286046996.7,N
1510900655.8,286046995.2,N
1510900675.7,286046992.1,N
1510900695.5,286046994.1,N
1510900715.3,286046994.7,N
1510900735.2,286046993.7,N
1510900755.9,286046996.4,N
1510900775.7,286046998.9,N
1510900795.6,286047004.2,N
1510900815.4,286047002.6,N
1510900835.2,286046999.9,N
1510900855.1,286046998.1,N
1510900856.0,286046998.1,N
1510900875.8,286046998.6,N
1510900895.6,286047001.0,N
1510900915.4,286046998.9,N
1510900935.3,286047001.2,N
1510900955.1,286046998.6,N
1510900975.8,286046997.8,N
1510900995.7,286046997.0,N
1510901015.5,286047002.7,N
1510901035.3,286047002.5,N
1510901055.2,286047001.8,N
1510901075.9,286047003.7,N
1510901095.7,286047004.2,N
1510901115.6,286047002.2,N
1510901135.4,286046998.2,N
1510901155.2,286046999.8,N
1510901175.1,286046999.9,N
1510901176.0,286046999.9,N
1510901195.8,286047004.2,N
1510901215.6,286047005.5,N
1510901235.5,286047005.7,N
1510901255.3,286047004.4,N
1510901275.1,286047003.2,N
1510901295.8,286047005.0,N
1510901315.7,286047005.1,N
1510901335.5,286047001.5,N
1510901355.3,286047002.5,N
1510901375.2,286047004.3,N
1510901395.0,286047003.5,N
1510901395.9,286047003.5,N
1510901415.7,286047002.9,N
1510901435.6,286047005.5,N
1510901455.4,286047005.9,N
1510901475.2,286047005.5,N
1510901495.1,286047003.8,N
1510901496.0,286047003.8,N
1510901515.8,286047003.1,N
1510901535.6,286047001.4,N
1510901555.5,286047000.1,N
1510901575.3,286047002.4,N
1510901595.1,286047003.7,N
1510901615.8,286047001.5,N
1510901635.7,286047001.2,N
1510901655.5,286046998.4,N
1510901675.3,286047000.8,N
1510901695.2,286047002.4,N
1510901715.9,286047001.5,N
1510901735.7,286047001.4,N
1510901755.6,286047001.0,N
1510901775.4,286047001.0,N
1510901795.2,286046998.1,N
1510901815.1,286047000.1,N
1510901816.0,286047000.1,N
1510901835.8,286046999.8,N
1510901855.6,286047003.1,N
1510901875.5,286047004.3,N
1510901895.3,286047000.9,N
1510901915.1,286047004.4,N
1510901935.8,286047003.1,N
1510901955.7,286047006.0,Y
1510901975.5,286047003.6,P
1510901995.3,286047003.2,P
